Regional Weather Roundup
Issued by NWS

Home | Current Version | Previous Version | Text Only | Print | Product List | Glossary On
Versions: 1 2 3 4 5 6 7 8 9 10 11 12 13 14 15 16 17 18 19 20 21 22 23 24 25 26 27 28 29 30 31 32 33 34 35 36 37 38 39 40 41 42 43 44 45 46 47 48 49 50
000
ASUS43 KDTX 281301
RWRMI
MICHIGAN HOURLY REGIONAL WEATHER ROUNDUP
NATIONAL WEATHER SERVICE DETROIT/PONTIAC MI
900 AM EDT FRI APR 28 2017

NOTE: "FAIR" INDICATES FEW OR NO CLOUDS BELOW 12,000 FEET WITH NO
SIGNIFICANT WEATHER AND/OR OBSTRUCTION TO VISIBILITY.

MIZ047>049-052>055-059>063-066>070-074>076-081>083-281400-
SOUTHEAST LOWER MICHIGAN

CITY           SKY/WX    TMP DP  RH WIND       PRES   REMARKS
ADRIAN         CLOUDY    49  41  74 SW12      30.01R
ALMA           CLOUDY    46  38  71 SW9G23    29.92R
ANN ARBOR      CLOUDY    49  41  74 S8        29.97R
BAD AXE        CLOUDY    47  36  65 W10G18    29.92R
CARO           MOSUNNY   48  37  66 SW10G17   29.92S
DETROIT CITY   PTSUNNY   50  40  68 SW7       29.97R
DETROIT        CLOUDY    51  40  65 S9        29.99R
FLINT          PTSUNNY   48  38  68 SW8       29.94R
GROSSE ILE     CLOUDY    52  40  63 SW7       29.98R
HILLSDALE      MOSUNNY   46  39  76 S10       29.98R
HOWELL         CLOUDY    47  38  73 S8        29.95R

CITY           SKY/WX    TMP DP  RH WIND       PRES   REMARKS
JACKSON        SUNNY     49  40  71 S8        29.97R
LAMBERTVILLE   MOSUNNY   50  40  69 S7        30.01R
LANSING        CLOUDY    47  37  68 S10       29.95R
LAPEER         FAIR      50  37  62 SW8       29.94S
MASON          CLOUDY    46  40  79 S5        29.96R
MONROE         CLOUDY    52  40  64 S7        29.99R
MT. CLEMENS    PTSUNNY   54  40  59 SW3       29.95R
PONTIAC        CLOUDY    48  38  68 S8        29.95R
PORT HOPE        N/A     47  35  63 SW10G18   29.90R
PORT HURON     PTSUNNY   50  36  57 SW5       29.98R
TRI CITIES     CLOUDY    47  38  71 SW15G25   29.91R
MIDLAND        CLOUDY    47  35  61 SW13      29.90R
TROY           CLOUDY    51  37  58 S7        29.97S
SAGINAW HB     PTSUNNY   48  34  57 SW12      29.91S
$$
MIZ043>046-050>051-056>058-064>065-071>073-077>080-281400-
SOUTHWEST LOWER MICHIGAN

CITY           SKY/WX    TMP DP  RH WIND       PRES   REMARKS
BATTLE CREEK   CLOUDY    47  41  80 S10       29.96R
BENTON HARBOR  CLOUDY    47  40  76 S5        29.96R
BIG RAPIDS     CLOUDY    41  31  67 W9        29.90R
COLDWATER      MOSUNNY   50  41  71 SW6       29.97R
FREMONT        FAIR      42  31  67 W5        29.92R
HOLLAND        CLOUDY    46  37  71 W8        29.95R
GRAND RAPIDS   CLOUDY    46  39  76 SW10      29.94R
IONIA          CLOUDY    46  37  68 SW12      29.94R
KALAMAZOO      MOSUNNY   49  41  74 S9        29.96R
LUDINGTON      CLOUDY    40  34  79 W6        29.90R
MARSHALL       CLOUDY    49  41  74 S13       29.95S
MOUNT PLEASANT CLOUDY    45  34  63 SW9G18    29.89S
MUSKEGON       MOSUNNY   44  33  65 W9        29.94R
SOUTH HAVEN    CLOUDY    46  39  77 CALM      29.95S
$$
MIZ016>042-281400-
NORTHERN LOWER MICHIGAN

CITY           SKY/WX    TMP DP  RH WIND       PRES   REMARKS
ALPENA         CLOUDY    43  36  76 SW13G20   29.86R
BEAVER ISLAND  LGT SNOW  34  33  97 W13       29.84R WCI  25
BELLAIRE       CLOUDY    38  34  85 SW9       29.87R WCI  31
CADILLAC       CLOUDY    38  32  77 SW8       29.86R WCI  32
CHARLEVOIX     CLOUDY    36  36 100 W16       29.89R FOG     WCI  26
FRANKFORT      CLOUDY    39  31  73 W9G17     29.89R WCI  32
GAYLORD        CLOUDY    39  33  79 W13       29.83R WCI  31
GRAYLING       CLOUDY    38  34  84 SW9       29.86R WCI  32
HARBOR SPRINGS LGT RAIN  35  35  99 W8G16     29.84R WCI  28
HOUGHTON LAKE  CLOUDY    41  31  67 SW15      29.87R
MANISTEE       CLOUDY    39  32  76 W13       29.90R WCI  31
OSCODA         CLOUDY    47  33  56 SW16      29.88R
PELLSTON       CLOUDY    36  33  89 SW9       29.84R WCI  29
ROGERS CITY    CLOUDY    39  37  92 W6        29.85S
TRAVERSE CITY  LGT RAIN  39  34  82 VRB7      29.86R WCI  34
$$
MIZ007>008-015-281400-
EASTERN UPPER MICHIGAN

CITY           SKY/WX    TMP DP  RH WIND       PRES   REMARKS
KINROSS        CLOUDY    35  29  78 W9G17     29.81R WCI  28
MACKINAC ISLAN CLOUDY    34  34 100 W9G20     29.82R FOG     WCI  27
NEWBERRY       CLOUDY    33  26  75 SW12G18   29.79R WCI  24
S. S. MARIE    CLOUDY    37  30  75 SW9       29.80R WCI  30
MUNISING         N/A     34  27  75 SW9       29.78R WCI  27
$$
MIZ004>006-011>014-085-281400-
CENTRAL UPPER MICHIGAN

CITY           SKY/WX    TMP DP  RH WIND       PRES   REMARKS
MANISTIQUE     CLOUDY    33  29  86 W8        29.82R WCI  26
ESCANABA       CLOUDY    34  28  79 SW8       29.83R WCI  27
MENOMINEE      CLOUDY    35  25  66 VRB3      29.86R
SAWYER-GWINN   CLOUDY    30  27  86 SW10      29.76R WCI  21
$$
MIZ001>003-009>011-084-281400-
WESTERN UPPER MICHIGAN

CITY           SKY/WX    TMP DP  RH WIND       PRES   REMARKS
IRON MOUNTAIN  CLOUDY    32  24  72 SW9       29.76S WCI  24
HOUGHTON       CLOUDY    31  24  75 W17       29.70R WCI  19
COPPER HARBOR    N/A     31  27  85 NW8       29.70R WCI  23
IRONWOOD       CLOUDY    29  25  85 W15       29.78R WCI  18
$$

ABBREVIATIONS USED IN REMARKS
   TC - TEMPERATURE IN CELSIUS
  WCI - WIND CHILL INDEX
   HX - HEAT INDEX
  VSB - VISIBILITY





USA.gov is the U.S. government's official web portal to all federal, state and local government web resources and services.